Flag for U.S.A. Weather past 2 weeks in Palm Springs, California, U.S.A.

Now
90 °F

Sunny.


Feels Like: 93 °F
Forecast: 80 / 99 °F
Wind: 5 mph from East

Location: Palm Springs Regional Airport

Current Time: Sep 17, 2014 at 10:04:12 AM

Latest Report: Sep 17, 2014 at 8:53 AM


Visibility: 10 mi

Pressure: 29.78 "Hg

Humidity: 45%

Dew point: 66 °F

Location of Palm SpringsLocation

Historic Weather in Palm Springs — Graph

°F

Palm Springs temperature yesterday

Maximum temperature yesterday: 102 °F (at 3:53 PM)
Minimum temperature yesterday: 87 °F (at 4:53 AM)
Average temperature yesterday: 94 °F

Past Weeks' High & Low Weather Summary

 TemperatureHumidityPressure
High111 °F (Sep 15, 3:53 PM)75% (Sep 6, 7:53 AM)29.91 "Hg (Sep 6, 7:53 AM)
Low75 °F (Sep 3, 6:53 AM)6% (Sep 2, 2:53 PM)29.55 "Hg (Sep 3, 5:53 PM)
Average94 °F31%29.75 "Hg
* Reported Sep 2 8:53 AM — Sep 17 8:53 AM, Palm Springs, Weather by CustomWeather, © 2014

Note: Actual official high and low records may vary slightly from our data, if they occured in-between our weather recording intervals... More about our weather records

Advertising

Palm Springs weather history for previous 24 hours

 ConditionsComfort  
Time TempWeatherWind HumidityBarometerVisibility
8:53 AM
Sep 17
90 °FSunny.5 mph45%29.78 "Hg10 mi
7:53 AM87 °FSunny.No wind51%29.78 "Hg10 mi
6:53 AM84 °FClear.3 mph55%29.77 "Hg10 mi
5:53 AM85 °FClear.3 mph55%29.75 "Hg10 mi
4:53 AM86 °FClear.No wind53%29.75 "Hg10 mi
3:53 AM87 °FClear.5 mph51%29.75 "Hg10 mi
2:53 AM87 °FClear.No wind51%29.76 "Hg10 mi
1:53 AM89 °FClear.5 mph46%29.76 "Hg10 mi
12:53 AM89 °FClear.5 mph46%29.77 "Hg10 mi
11:53 PM
Sep 16
90 °FPassing clouds.No wind47%29.79 "Hg10 mi
10:53 PM90 °FOvercast.10 mph47%29.80 "Hg10 mi
9:53 PM93 °FPassing clouds.13 mph41%29.78 "Hg10 mi
8:53 PM94 °FClear.13 mph41%29.76 "Hg10 mi
7:53 PM97 °FClear.9 mph35%29.74 "Hg10 mi
6:53 PM97 °FScattered clouds.8 mph35%29.72 "Hg10 mi
5:53 PM99 °FSunny.15 mph33%29.72 "Hg10 mi
4:53 PM101 °FSunny.13 mph31%29.71 "Hg10 mi
3:53 PM102 °FScattered clouds.9 mph31%29.72 "Hg10 mi
2:53 PM101 °FScattered clouds.6 mph30%29.74 "Hg10 mi
1:53 PM100 °FScattered clouds.9 mph37%29.77 "Hg10 mi
12:53 PM99 °FScattered clouds.12 mph38%29.80 "Hg10 mi
11:53 AM95 °FScattered clouds.5 mph44%29.82 "Hg10 mi
10:53 AM94 °FScattered clouds.7 mph44%29.85 "Hg10 mi
Weather by CustomWeather, © 2014

See weather overviewHow to use our weather pages